This is the latest recevied weather packets stored in our database for station/object K8JMX-13. If no packets are shown the sender has not sent any weather packets the latest 10 day(s).
| Time | Temp. | Humidity | Pressure | Rain* | Wind** | Luminosity | Snow |
|---|---|---|---|---|---|---|---|
| 1777844627 | 15.56° C | 37% | 1012.9 hPa | 0 mm | - | 189 W/m² | - |
| 1777844324 | 15.56° C | 37% | 1013 hPa | 0 mm | - | 199 W/m² | - |
| 1777844022 | 15.56° C | 37% | 1012.9 hPa | 0 mm | - | 201 W/m² | - |
| 1777843718 | 15.56° C | 37% | 1012.8 hPa | 0 mm | - | 217 W/m² | - |
| 1777843416 | 15.56° C | 37% | 1013.2 hPa | 0 mm | - | 168 W/m² | - |
| 1777843113 | 15.56° C | 37% | 1013.1 hPa | 0 mm | - | 157 W/m² | - |
| 1777842810 | 15.56° C | 37% | 1013.2 hPa | 0 mm | - | 215 W/m² | - |
| 1777842505 | 15.56° C | 36% | 1013.1 hPa | 0 mm | - | 197 W/m² | - |
| 1777842203 | 15.56° C | 36% | 1013.3 hPa | 0 mm | - | 216 W/m² | - |
| 1777841897 | 15.56° C | 36% | 1013.4 hPa | 0 mm | - | 188 W/m² | - |
| 1777841594 | 16.11° C | 35% | 1013.3 hPa | 0 mm | - | 245 W/m² | - |
| 1777841291 | 16.11° C | 36% | 1013.3 hPa | 0 mm | - | 295 W/m² | - |
| 1777840989 | 15.56° C | 37% | 1013.3 hPa | 0 mm | - | 349 W/m² | - |
| 1777840686 | 15.56° C | 37% | 1013.4 hPa | 0 mm | - | 297 W/m² | - |
| 1777840383 | 16.11° C | 36% | 1013.5 hPa | 0 mm | - | 201 W/m² | - |
| 1777840080 | 16.67° C | 35% | 1013.6 hPa | 0 mm | - | 489 W/m² | - |
| 1777839778 | 16.11° C | 36% | 1013.4 hPa | 0 mm | - | 463 W/m² | - |
| 1777839475 | 16.67° C | 35% | 1013.3 hPa | 0 mm | - | 568 W/m² | - |
| 1777839173 | 16.67° C | 37% | 1013.5 hPa | 0 mm | - | 613 W/m² | - |
| 1777838869 | 16.11° C | 35% | 1013.5 hPa | 0 mm | - | 499 W/m² | - |
| 1777838565 | 17.22° C | 34% | 1013.8 hPa | 0 mm | - | 247 W/m² | - |
| 1777838263 | 16.11° C | 36% | 1013.7 hPa | 0 mm | - | 729 W/m² | - |
| 1777837959 | 16.11° C | 36% | 1013.7 hPa | 0 mm | - | 710 W/m² | - |
| 1777837657 | 16.11° C | 36% | 1013.7 hPa | 0 mm | - | 750 W/m² | - |
| 1777837347 | 15.56° C | 36% | 1014 hPa | 0 mm | - | 167 W/m² | - |
* Rain latest hour (hover to see other rain measurements)
** Current wind speed in m/s (hover to see current wind gust speed)